User: anonymous   Login
Location: Unspecified
(0.0000°N, 0.0000°E)
Time: 00:14:35
(UTC+00:00)
Language:

OPTOS - Orbit

View from above orbital plane
View from above orbital plane
View from above satellite
View from above satellite

Ground track
Ground track

The orbit data is extracted from the following two-line orbital elements,

1 39429U 13066P   17326.45496219  .00000457  00000-0  90124-4 0  9998
2 39429  97.6706 316.3096 0145579 254.4031 104.1073 14.60605187213215
Epoch (UTC): 22 November 2017 10:55:08
Eccentricity: 0.0145579
inclination: 97.6706°
perigee height: 588 km
apogee height: 794 km
right ascension of ascending node: 316.3096°
argument of perigee: 254.4031°
revolutions per day: 14.60605187
mean anomaly at epoch: 104.1073°
orbit number at epoch: 21321

The dashed part of the orbit path shows where the satellite is in the earth's shadow,  

DLR